Flag for U.S.A. Weather past 2 weeks in Sunnyvale, California, U.S.A.

Now
56 °F

Sunny.


Feels Like: 54 °F
Forecast: 55 / 70 °F
Wind: 8 mph from Northwest

Location: Moffett Field

Current Time: May 24, 2015 at 9:36:16 PM

Latest Report: May 24, 2015 at 8:56 PM


Visibility: 10 mi

Pressure: 30.00 "Hg

Humidity: 81%

Dew point: 50 °F

Location of SunnyvaleLocation

Historic Weather in Sunnyvale — Graph

°F

Sunnyvale temperature yesterday

Maximum temperature yesterday: 64 °F (at 12:56 PM)
Minimum temperature yesterday: 55 °F (at 10:56 PM)
Average temperature yesterday: 59 °F

Past Weeks' High & Low Weather Summary

 TemperatureHumidityPressure
High67 °F (May 13, 2:56 PM)93% (May 15, 5:56 AM)30.14 "Hg (May 15, 5:56 AM)
Low48 °F (May 12, 4:56 AM)35% (May 12, 4:56 PM)29.81 "Hg (May 14, 3:56 PM)
Average58 °F68%30.01 "Hg
* Reported May 9 7:56 PM — May 24 7:56 PM, Sunnyvale, Weather by CustomWeather, © 2015

Note: Actual official high and low records may vary slightly from our data, if they occured in-between our weather recording intervals... More about our weather records

Advertising

Sunnyvale weather history for previous 24 hours

 ConditionsComfort  
Time TempWeatherWind HumidityBarometerVisibility
7:56 PM
Sun, May 24
57 °FSunny.10 mph81%29.98 "Hg10 mi
6:56 PM59 °FSunny.15 mph75%29.98 "Hg10 mi
5:56 PM62 °FSunny.14 mph67%29.98 "Hg10 mi
4:56 PM63 °FSunny.17 mph68%29.98 "Hg10 mi
3:56 PM65 °FSunny.20 mph61%29.98 "Hg10 mi
2:56 PM67 °FSunny.20 mph61%30.00 "Hg10 mi
1:56 PM67 °FSunny.16 mph61%30.01 "Hg10 mi
12:56 PM67 °FSunny.10 mph61%30.02 "Hg10 mi
11:56 AM66 °FSunny.12 mph61%30.03 "Hg10 mi
10:56 AM64 °FSunny.6 mph61%30.04 "Hg10 mi
9:56 AM62 °FSunny.No wind62%30.04 "Hg10 mi
8:56 AM59 °FSunny.No wind69%30.05 "Hg10 mi
7:56 AM56 °FSunny.No wind77%30.05 "Hg10 mi
6:56 AM54 °FSunny.No wind77%30.04 "Hg10 mi
5:56 AM52 °FClear.No wind80%30.02 "Hg10 mi
4:56 AM53 °FClear.No wind80%30.01 "Hg10 mi
3:56 AM53 °FClear.3 mph80%30.01 "Hg10 mi
2:56 AM53 °FClear.3 mph80%30.03 "Hg10 mi
1:56 AM54 °FClear.3 mph77%30.06 "Hg10 mi
12:56 AM54 °FClear.No wind77%30.07 "Hg10 mi
11:56 PM
Sat, May 23
55 °FClear.5 mph77%30.08 "Hg10 mi
10:56 PM55 °FClear.6 mph77%30.09 "Hg10 mi
9:56 PM56 °FClear.6 mph72%30.09 "Hg10 mi
Weather by CustomWeather, © 2015

See weather overviewHow to use our weather pages